Погода в Карауле

Погода в Карауле : погода сейчас, прогноз погоды и архив. Всё, что Вы хотите узнать о погоде в Карауле!

Поиск расширенной информации на нашем сайте:

Другие новости

Новости СМИ2

Главная страница сайта

Новости сайта

03.07.2017

Напоминаем, что на нашем специализированном сайте Метеоцентр.Азия вы можете получить высокодетализированные автоматические прогнозы погоды по пунктам России, СНГ и мира в авиационном формате (включающие направление и скорость ветра, видимость, явления погоды, количество и форму облачности, нижнюю и верхнюю границу облачности).


Погода в Карауле - сегодня

Время (UTC), дата Ветер
(°,м/с) 
Видим.   Явления Облачность Т
(°С)
Тd
(°С)
f(%) Тe
(°С)
Pmin
(гПа)
dP
(гПа)
Po
(мм)
O2
(г/м3)
Тmin Tmax R s Состояние
почвы
06 20.02.18 020 (С) 20000 м    ясно 
-32.3 -34.6 80 -33  1025.9  0.8  766  352           
09 20.02.18 360 (С) 20000 м    ясно 
-33.6 -36.5 75 -38  1027.5  1.5  767  355           
12 20.02.18 360 (С) 20000 м    ясно 
-36.4 -38.7 79 -37  1028.6  1.1  768  359    -29.8       
15 20.02.18 360 (С) 20000 м    ясно 
-36.9 -39.1 80 -38  1030.3  1.6  770  361           
18 20.02.18 360 (С) 20000 м    ясно 
-37.6 -39.9 79 -42  1030.5  0.2  770  362           
21 20.02.18 360 (С) 20000 м    ясно 
-38.3 -40.3 81 -43  1030.5  770  363           
00 21.02.18 360 (С) 20000 м    ясно 
-37.2 -40.1 74 -47  1031.3  0.8  770  361  -38.6      87  неравномерный
сухой снег
100% 
03 21.02.18 340 (С) 20000 м    1/1 2000 м средняя 
[Ac trans]
-36.6 -39.4 75 -47  1031  -0.3  770  360           
06 21.02.18 340 (С) 20000 м    3/3 2000 м средняя 
[Ac trans]
-34.9 -37 81 -44  1031.4  0.4  770  358           
09 21.02.18 360 (С) 20000 м    4/1 2000 м средняя, верхняя 
[Ac trans|Ci fib]
-31.7 -34.1 79 -39  1031.8  0.5  771  353           
12 21.02.18 360 (С) 20000 м    3/0 верхняя 
[Ci fib]
-33.5 -35.9 79 -41  1032  0.1  771  356    -31.7       
15 21.02.18 340 (С) 20000 м    ясно 
-35.1 -37.4 79 -41  1032.1  0.1  771  358           
18 21.02.18 340 (С) 20000 м    ясно 
-35.3 -37.7 78 -42  1031.6  -0.5  770  359           
21 21.02.18 340 (С) 20000 м    8/8 2000 м средняя 
[Ac trans]
-34.9 -37 81 -41  1030.5  -1.1  770  358           
00 22.02.18 340 (С) 20000 м    3/3 2000 м средняя 
[Ac trans]
-33.9 -36.1 80 -38  1029.6  -0.8  769  356  -35.5      87  неравномерный
сухой снег
100% 
03 22.02.18 340 (С) 20000 м    4/3 2000 м средняя, верхняя 
[Ac trans|Ci fib]
-32.3 -34.6 80 -36  1028.9  -0.6  769  353           
06 22.02.18 340 (С) 4000 м  дымка  3/0 верхняя 
[Ci fib]
-26.9 -29.3 80 -28  1028.2  -0.6  768  345           
09 22.02.18 350 (С) 20000 м  позёмок  ясно 
-24.9 -27.4 80 -34  1027.6  -0.6  768  342           
12 22.02.18 360 (С) 7{10}  20000 м  позёмок  ясно 
-26.3 -28 85 -36  1027.7  0.1  768  344    -24.9       
15 22.02.18 350 (С) 20000 м  позёмок  1/1 2000 м средняя 
[Ac trans]
-28.7 -30.5 84 -38  1027  -0.8  767  347           
18 22.02.18 350 (С) 20000 м  позёмок  3/3 2000 м средняя 
[Ac trans]
-23.5 -25.3 85 -32  1025.9  -1  766  340           
21 22.02.18 360 (С) 20000 м  позёмок  3/3 2000 м средняя 
[Ac trans]
-23.6 -25.5 84 -32  1025.7  -0.6  766  340           
00 23.02.18 360 (С) 20000 м  позёмок  8/8 2000 м средняя 
[Ac trans]
-18 -19.9 85 -26  1024.7  -0.6  766  332  -28.9      85  неравномерный
сухой снег
100% 
03 23.02.18 020 (С) 20000 м  позёмок  9/4 600 м средняя 
[Sc|Ac trans]
-18.1 -20.7 80 -26  1024  -0.7  765  332           
12 23.02.18 070 (В) 10-14{16}  4000 м  метель  ясно 
-27.4 -30.4 76 -39  1025.5  1.9  766  345    -18       
Время (UTC), дата Ветер
(°,м/с) 
Видим.   Явления Облачность Т
(°С)
Тd
(°С)
f(%) Тe
(°С)
Pmin
(гПа)
dP
(гПа)
Po
(мм)
O2
(г/м3)
Тmin Tmax R s Состояние
почвы

Для получения пояснительной информации подведите курсор к названию столбца.

ПОГОДА в Карауле - архив

Всё, что Вы хотите узнать о погоде в Карауле - удобно и подробно!

Выберите нужную дату (начиная с 1 января 2015* года) и нажмите кнопку "Найти".
Будут отображены архивные сводки погоды по пункту Караул, начиная с указанной даты.


Отображать данные в формате CSV (для использования в таблицах Excel)


Внимание! Наш архив погоды предназначен исключительно для личного некоммерческого использования в познавательных целях. Если Вам необходимы официальные справки о состоянии погоды (для производственных, юридических, коммерческих и т.п. целей), обращайтесь в органы Росгидромета.

*Примечание: данная дата относится к архиву по метеостанциям СССР (Россия, СНГ, Балтия).
Архив по метеостанциям Зарубежной Европы и Азии (кроме Китая) хранится 10 дней, по другим регионам земного шара (Китай, Африка, Америка, Австралия, Океания) - 1 день.

Караул - район местоположения метеостанции


Название, широта, долгота, высота метеостанции:
Караул 70.2°ш. 83.1°д. 29 м над ур. моря [Российская Федерация]

Дополнительная информация

В oтличие oт бoльшинства пoгoдных сайтoв мы публикуем пoдрoбную метеoинфoрмацию в детальнoм прoфессиoнальнoм фoрмате.

Характеристики температуры и влажнoсти вoздуха измеряются на высoте 2 м в тени вдали oт зданий и деревьев.
Скoрoсть ветра измеряется на высoте 10 м (на урoвне рoста челoвека скoрoсть ветра ниже в 1.5-2 раза). Если метеoстанция нахoдится в гoрoде или в лесу, тo скoрoсть ветра занижена на 2-4 м/с пo сравнению с oткрытым местoм. Скoрoсть ветра над акватoриями крупных рек и oзёр, а также на вершинах хoлмoв на 2-5 м/с выше, чем в oбычных услoвиях.
Атмoсфернoе давление в разных тoчках местнoсти мoжет значительнo oтличаться oт давления на метеoстанции, в зависимoсти oт услoвий рельефа (при пoдъёме на 10 м давление пoнижается примернo на 1 мм рт.ст.).